Regional Weather Roundup
Issued by NWS

Home | Current Version | Previous Version | Graphics & Text | Print | Product List | Glossary On
Versions: 1 2 3 4 5 6 7 8 9 10 11 12 13 14 15 16 17 18 19 20 21 22 23 24 25 26 27 28 29 30 31 32 33 34 35 36 37 38 39 40 41 42 43 44 45 46 47 48 49 50
000
ASUS45 KABQ 010710
RWRNM
WEATHER ROUNDUP FOR NEW MEXICO
NATIONAL WEATHER SERVICE ALBUQUERQUE NM
100 AM MDT FRI AUG 01 2014

NOTE: "FAIR" MEANS FEW OR NO CLOUDS BELOW 12,000 FEET AGL WITH NO
       SIGNIFICANT WEATHER OR OBSTRUCTIONS TO VISION.

      THIS PRODUCT IS RELEASED AS TWO VERSIONS.  ONE VERSION NEAR
      THE TOP OF THE HOUR CONTAINING PRELIMINARY DATA FROM ALBUQUERQUE
      AND OTHER STATIONS.  A FINAL VERSION WITH ADDITIONAL DATA IS
      ISSUED ABOUT 10 MINUTES AFTER THE HOUR.

NMZ501-503-504-510>518-010800-
NORTHWEST PLATEAU/NORTHCENTRAL MOUNTAINS

CITY           SKY/WX    TMP DP  RH WIND       PRES   REMARKS
FARMINGTON     PTCLDY    70  53  54 SE5       30.22S
LOS ALAMOS     CLOUDY    55  55 100 S6        30.40F
SANTA FE       MOCLDY    58  54  86 SE6       30.36R
TAOS             N/A     54  50  87 CALM      30.39S
ANGEL FIRE     CLOUDY    53  51  93 N3        30.48S

$$
NMZ402-403-502-505>509-010800-
WESTCENTRAL MOUNTAINS/SOUTHWEST MOUNTAINS

CITY           SKY/WX    TMP DP  RH WIND       PRES   REMARKS
GALLUP         CLOUDY    61  55  81 CALM      30.33R
SILVER CITY    CLOUDY    66  63  88 NW5       30.25S

$$
NMZ407-409-411-412-010800-
SOUTHERN DESERTS

CITY           SKY/WX    TMP DP  RH WIND       PRES   REMARKS
LORDSBURG      PTSUNNY   70  59  68 S10       30.17F
DEMING         LGT RAIN  67  63  87 NE17G24   30.17S
LAS CRUCES     CLOUDY    67  63  86 N13G18    30.21S
HOLLOMAN AFB   LGT RAIN  64  64 100 N15G24    30.20R
ALAMOGORDO     HVY RAIN  66  64  94 N17G28    30.20F
T OR C         CLOUDY    64  60  87 N15       30.23F

$$
NMZ519>523-010800-
CENTRAL VALLEYS/CENTRAL HIGHLANDS

CITY           SKY/WX    TMP DP  RH WIND       PRES   REMARKS
ALBUQUERQUE    CLOUDY    68  53  58 NE10G17   30.28S
DOUBLE EAGLE   MOCLDY    61  56  85 W8        30.31S
MORIARTY ARPT  FAIR      58  55  89 S3        30.35F
CLINES CORNERS CLOUDY    56  54  93 SE10      30.36F
BELEN          PTSUNNY   64  56  78 S20       30.26F
SOCORRO        FAIR      65  57  75 E3        30.26F

$$
NMZ524>526-539-540-010800-
SOUTHCENTRAL MOUNTAINS

CITY           SKY/WX    TMP DP  RH WIND       PRES   REMARKS
RUIDOSO        HVY RAIN  55  55 100 N12G20    30.40F

$$
NMZ527>531-010800-
NORTHEAST HIGHLANDS/NORTHEAST PLAINS

CITY           SKY/WX    TMP DP  RH WIND       PRES   REMARKS
LAS VEGAS      CLOUDY    54  52  93 NE3       30.39F
RATON          CLOUDY    60  57  89 NE6       30.35F
CLAYTON        CLOUDY    63  56  78 S3        30.28F

$$
NMZ532>537-010800-
EASTCENTRAL PLAINS

CITY           SKY/WX    TMP DP  RH WIND       PRES   REMARKS
TUCUMCARI      CLOUDY    71  55  56 CALM      30.22S
CANNON AFB     CLOUDY    65  54  66 E7        30.24F
CLOVIS AIRPORT NOT AVBL

$$
NMZ028-029-538-010800-
SOUTHEAST PLAINS

CITY           SKY/WX    TMP DP  RH WIND       PRES   REMARKS
ROSWELL        CLOUDY    73  64  73 E3        30.17F
ARTESIA        CLOUDY    72  66  83 E3        30.16S
CARLSBAD       CLOUDY    74  66  76 N6        30.13F
HOBBS          MOCLDY    70  55  60 E9        30.17F


$$


USA.gov is the U.S. government's official web portal to all federal, state and local government web resources and services.